Home   Weather   Weno   Past weeks

Flag for Micronesia Past Weather in Weno, Truk, Micronesia — Yesterday and Last 2 Weeks

Now
82 °F

More clouds than sun.


Feels Like: 90 °F
Forecast: 81 / 85 °F
Wind: 7 mph from Southeast

Location: Truk Intl / Moen Island

Current Time: Apr 24, 2017 at 8:07:03 am

Latest Report: Apr 24, 2017 at 6:50 am


Visibility: 15 mi

Pressure: 29.88 "Hg

Humidity: 88%

Dew Point: 78 °F

Location of WenoLocation

Past Weather in Weno — Graph

°F

Weno Temperature Yesterday

Maximum temperature yesterday: 89 °F (at 9:54 am)
Minimum temperature yesterday: 80 °F (at 2:54 am)
Average temperature yesterday: 82 °F

High & Low Weather Summary for the Past Weeks

 TemperatureHumidityPressure
High89 °F (Apr 23, 9:54 am)100% (Apr 13, 1:25 pm)29.90 "Hg (Apr 13, 1:25 pm)
Low77 °F (Apr 13, 1:25 pm)74% (Apr 11, 9:50 am)29.68 "Hg (Apr 9, 2:51 pm)
Average83 °F88%29.81 "Hg
* Reported Apr 9 5:51 am — Apr 24 5:51 am, Weno, Weather by CustomWeather, © 2017

Note: Actual official high and low records may vary slightly from our data, if they occured in-between our weather recording intervals... More about our weather records

Advertising

Weno Weather History for the Previous 24 Hours

Scroll right to see more
 ConditionsComfort  
Time TempWeatherWind HumidityBarometerVisibility
5:51 am
Mon, Apr 24
81 °FMostly cloudy.5 mph89%29.85 "Hg15 mi
4:52 am81 °FMostly cloudy.7 mph88%29.83 "Hg15 mi
3:52 am81 °FMostly cloudy.6 mph86%29.83 "Hg15 mi
2:50 am82 °FMostly cloudy.5 mph85%29.83 "Hg15 mi
1:53 am82 °FMostly cloudy.6 mph91%29.84 "Hg15 mi
12:51 am81 °FMostly cloudy.6 mph89%29.85 "Hg15 mi
11:50 pm
Sun, Apr 23
81 °FMostly cloudy.12 mph91%29.87 "Hg15 mi
10:50 pm81 °FMostly cloudy.7 mph91%29.88 "Hg15 mi
9:50 pm81 °FOvercast.6 mph91%29.89 "Hg15 mi
8:50 pm81 °FOvercast.6 mph94%29.87 "Hg15 mi
7:51 pm80 °FLight rain. Mostly cloudy.6 mph98%29.86 "Hg14 mi
6:53 pm80 °FLight rain. Mostly cloudy.6 mph94%29.84 "Hg14 mi
5:50 pm81 °FCloudy.6 mph94%29.83 "Hg15 mi
4:51 pm80 °FCloudy.6 mph94%29.82 "Hg15 mi
3:50 pm80 °FCloudy.6 mph96%29.81 "Hg15 mi
2:50 pm80 °FCloudy.6 mph96%29.82 "Hg15 mi
1:50 pm84 °FMore clouds than sun.6 mph94%29.80 "Hg15 mi
12:51 pm85 °FMore clouds than sun.6 mph92%29.81 "Hg15 mi
11:53 am87 °FMore clouds than sun.6 mph91%29.84 "Hg15 mi
10:51 am88 °FMore clouds than sun.6 mph87%29.87 "Hg15 mi
9:54 am89 °FCloudy.8 mph90%29.88 "Hg15 mi
8:51 am85 °FCloudy.6 mph92%29.89 "Hg15 mi
Weather by CustomWeather, © 2017

See weather overviewHow to use our weather pages